Location: Unspecified
(41.5516°N, 88.1098°W)
Time: 10:13:13
(UTC-05:00)

Cosmos 1674 - Visible Passes

Search period start: 29 September 2016 00:00
Search period end: 09 October 2016 00:00
Orbit: 501 x 524 km, 82.5° (Epoch: 28 September)

Date Brightness Start Highest point End Pass type
(mag) Time Alt. Az. Time Alt. Az. Time Alt. Az.
29 Sep 2.6 20:00:15 10° N 20:04:06 63° E 20:06:19 24° SSE visible
30 Sep 2.9 19:44:17 10° N 19:48:04 49° E 19:51:28 12° SSE visible
30 Sep 6.0 21:22:12 10° WNW 21:23:13 11° W 21:24:15 10° W visible
01 Oct 3.2 19:28:22 10° N 19:32:03 39° ENE 19:35:41 10° SSE visible
01 Oct 5.8 21:05:19 10° NW 21:07:17 14° W 21:09:16 10° WSW visible
02 Oct 3.5 19:12:29 10° NNE 19:15:59 31° ENE 19:19:28 10° SE visible
02 Oct 5.6 20:48:49 10° NW 20:51:21 17° W 20:53:53 10° SW visible
03 Oct 3.8 18:56:39 10° NNE 18:59:55 25° ENE 19:03:09 10° SE visible
03 Oct 5.3 20:32:27 10° NW 20:35:24 21° W 20:38:20 10° SW visible
04 Oct 5.0 20:16:12 10° NNW 20:19:27 26° W 20:22:40 10° SSW visible
05 Oct 4.6 19:59:58 10° NNW 20:03:28 32° W 20:06:56 10° SSW visible
06 Oct 4.1 19:43:49 10° NNW 19:47:29 40° W 19:51:07 10° SSW visible
07 Oct 3.6 19:27:42 10° NNW 19:31:29 52° W 19:35:14 10° S visible
08 Oct 3.1 19:11:36 10° NNW 19:15:28 67° W 19:19:17 10° S visible
